Skip Page Navigation
NASA JPL Caltech
NASA Logo - Jet Propulsion Laboratory + View the NASA Portal
+ Center for Near-Earth Object Studies
JPL Home Earth Solar System Stars & Galaxies Technology
JPL Solar System Dynamics
BODIES ORBITS EPHEMERIDES TOOLS PHYSICAL DATA DISCOVERY FAQ SITE MAP
IMPORTANT: The SSD Announcement email list is now available. Major changes are coming in the near future, including possible hostname and/or URL changes. To be notified of such changes, subscribe to this email list.

Please visit this page for more details.


JPL Small-Body Database Browser
Search: [ help ]  
154502 (2003 FV30)
Classification: Main-belt Asteroid          SPK-ID: 2154502
Ephemeris | Orbit Diagram | Orbital Elements | Mission Design | Physical Parameters | Discovery Circumstances | Close-Approach Data ]

[ show orbit diagram ]
Orbital Elements at Epoch 2459000.5 (2020-May-31.0) TDB
Reference: JPL 14 (heliocentric ecliptic J2000)
 Element Value Uncertainty (1-sigma)   Units 
e .1168001806402473 1.3984e-07  
a 2.663669458101578 2.9371e-08 au
q 2.352552384229404 3.8279e-07 au
i 28.81262038235605 1.0682e-05 deg
node 9.200934886439869 1.2038e-05 deg
peri 176.9736355631935 2.9331e-05 deg
M 338.5973926220154 2.5348e-05 deg
tp 2459094.902415601707
(2020-Sep-02.40241560)
0.00011222 TDB
period 1587.884551466961
4.35
2.6264e-05
7.191e-08
d
yr
n .2267167343289633 3.7499e-09 deg/d
Q 2.974786531973751 3.2802e-08 au
  Orbit Determination Parameters
   # obs. used (total)      344  
   data-arc span      6148 days (16.83 yr)  
   first obs. used      2003-03-09  
   last obs. used      2020-01-07  
   planetary ephem.      DE431  
   SB-pert. ephem.      SB431-N16  
   condition code      0  
   norm. resid. RMS      .59444  
   source      ORB  
   producer      Otto Matic  
   solution date      2020-Jan-29 20:04:01  

Additional Information
 Earth MOID = 1.35395 au 
 Jupiter MOID = 1.98108 au 
 T_jup = 3.199 
[ show covariance matrix ]

Ephemeris | Orbit Diagram | Orbital Elements | Mission Design | Physical Parameters | Discovery Circumstances | Close-Approach Data ]

Physical Parameter Table
Parameter Symbol Value Units Sigma Reference Notes
absolute magnitude H 15.4   n/a MPO379494  

154502 (2003 FV30)          Discovered 2003-Mar-30 by LINEAR at Socorro
Reference: 20070402/Numbers.arcLast Updated: 2007-04-04

[ show close-approach data ]
Ephemeris | Orbit Diagram | Orbital Elements | Mission Design | Physical Parameters | Discovery Circumstances | Close-Approach Data ]
ABOUT SSD CREDITS/AWARDS PRIVACY/COPYRIGHT GLOSSARY LINKS
FirstGov 2020-Feb-17 22:56 UT
(server date/time)  
NASA Home Page
Site Manager:   Ryan S. Park
Webmaster  Alan B. Chamberlin